Oranjestad, Aruba

4:26 AM AST on April 21, 2018 (GMT -0400)
Oranjestad

Weather History for 78982 - May, 2013

Change the Weather History Date:

Saturday, May 4, 2013

  Actual Average Record
Temperature  
Mean Temperature 84 °F -  
Max Temperature 88 °F 88 °F - ()
Min Temperature 79 °F 78 °F - ()
Cooling Degree Days 18    
Growing Degree Days 34 (Base 50)    
Moisture  
Dew Point 77 °F    
Average Humidity 81    
Maximum Humidity 94    
Minimum Humidity 59    
Precipitation  
Precipitation 0.00 in - - ()
Sea Level Pressure  
Sea Level Pressure 29.82 in    
Wind  
Wind Speed 4 mph ()    
Max Wind Speed 8 mph    
Max Gust Speed -    
Visibility 8.8 miles    
Events      
T = Trace of Precipitation, MM = Missing Value Source: Averaged Metar Reports

Daily Weather History Graph

Daily Weather History Graph

Search for Another Location

Airport or City:

Astronomy

May. 04, 2013 Rise Set
Actual Time 6:18 AM AST 6:55 PM AST
Civil Twilight 5:56 AM AST 7:17 PM AST
Nautical Twilight 5:30 AM AST 7:43 PM AST
Astronomical Twilight 5:04 AM AST 8:09 PM AST
Moon 2:21 AM AST (5/4) 2:38 PM AST (5/4)
Length of Visible Light 13h 20m
Length of Day
12h 36m
Waning Crescent, 27% of the Moon is Illuminated
May 4
Waning Crescent
May 9
New
May 18
First Quarter
May 25
Full
May 31
Last Quarter

Hourly Weather History & Observations

Time (AST) Temp. Heat Index Dew Point Humidity Pressure Visibility Wind Dir Wind Speed Gust Speed Precip Events Conditions
12:00 AM 80.6 °F 87.1 °F 77.0 °F 89% 29.86 in 6.2 mi NE 4.6 mph - N/A   Scattered Clouds
1:00 AM 80.6 °F 87.1 °F 77.0 °F 89% 29.83 in 6.2 mi NE 4.6 mph - N/A   Partly Cloudy
2:00 AM 80 °F - 77 °F 87% 29.83 in 19 mi 3.5 mph - -   Scattered Clouds
2:00 AM 80.6 °F 87.1 °F 77.0 °F 89% 29.83 in 6.2 mi Variable 3.5 mph - N/A   Partly Cloudy
3:00 AM 80.6 °F 87.1 °F 77.0 °F 89% 29.80 in 6.2 mi Variable 3.5 mph - N/A   Partly Cloudy
4:00 AM 78.8 °F - 77.0 °F 94% 29.80 in 6.2 mi Variable 3.5 mph - N/A   Partly Cloudy
5:00 AM 79 °F - 76 °F 90% 29.81 in 19 mi 2.3 mph - -   Scattered Clouds
5:00 AM 78.8 °F - 77.0 °F 94% 29.80 in 6.2 mi Variable 2.3 mph - N/A   Partly Cloudy
6:00 AM 80.6 °F 87.1 °F 77.0 °F 89% 29.80 in 6.2 mi Variable 2.3 mph - N/A   Partly Cloudy
7:00 AM 80.6 °F 87.1 °F 77.0 °F 89% 29.80 in 6.2 mi Variable 1.2 mph - N/A   Scattered Clouds
8:00 AM 81 °F - 78 °F 89% 29.83 in 16 mi SE 5.8 mph - -   Partly Cloudy
8:00 AM 80.6 °F 88.1 °F 78.8 °F 94% 29.83 in 6.2 mi SE 5.8 mph - N/A   Scattered Clouds
9:00 AM 82.4 °F 92.4 °F 78.8 °F 89% 29.86 in 6.2 mi SSE 8.1 mph - N/A   Scattered Clouds
10:00 AM 84.2 °F 96.1 °F 78.8 °F 84% 29.86 in 6.2 mi SSE 8.1 mph - N/A   Scattered Clouds
11:00 AM 85 °F - 78 °F 74% 29.87 in 16 mi South 8.1 mph - -   Partly Cloudy
11:00 AM 86.0 °F 99.3 °F 78.8 °F 79% 29.86 in 6.2 mi South 8.1 mph - N/A   Scattered Clouds
12:00 PM 86.0 °F 96.9 °F 77.0 °F 74% 29.83 in 6.2 mi SSE 5.8 mph - N/A   Scattered Clouds
1:00 PM 87.8 °F 99.7 °F 77.0 °F 70% 29.80 in 6.2 mi SE 5.8 mph - N/A   Partly Cloudy
2:00 PM 88 °F - 76 °F 59% 29.81 in 16 mi South 4.6 mph - -   Partly Cloudy
2:00 PM 87.8 °F 97.6 °F 75.2 °F 66% 29.80 in 6.2 mi South 4.6 mph - N/A   Scattered Clouds
3:00 PM 87.8 °F 102.5 °F 78.8 °F 75% 29.77 in 6.2 mi South 8.1 mph - N/A   Partly Cloudy
4:00 PM 86.0 °F 99.3 °F 78.8 °F 79% 29.74 in 6.2 mi WSW 5.8 mph - N/A   Unknown
5:00 PM 88 °F - 76 °F 59% 29.79 in 16 mi ENE 5.8 mph - -   Scattered Clouds
5:00 PM 87.8 °F 97.6 °F 75.2 °F 66% 29.77 in 6.2 mi ENE 5.8 mph - N/A   Partly Cloudy
6:00 PM 86.0 °F 95.1 °F 75.2 °F 70% 29.77 in 6.2 mi ENE 6.9 mph - N/A   Partly Cloudy
7:00 PM 84.2 °F 94.1 °F 77.0 °F 79% 29.77 in 6.2 mi ENE 6.9 mph - N/A   Partly Cloudy
8:00 PM 83 °F - 76 °F 74% 29.81 in 16 mi East 4.6 mph - -   Scattered Clouds
8:00 PM 82.4 °F 90.9 °F 77.0 °F 84% 29.80 in 6.2 mi East 4.6 mph - N/A   Partly Cloudy
9:00 PM 82.4 °F 90.9 °F 77.0 °F 84% 29.83 in 6.2 mi Variable 3.5 mph - N/A   Partly Cloudy
10:00 PM 82.4 °F 90.9 °F 77.0 °F 84% 29.86 in 6.2 mi Variable 2.3 mph - N/A   Partly Cloudy
11:00 PM 80 °F - 78 °F 90% 29.82 in 16 mi 1.2 mph - -   Scattered Clouds
11:00 PM 82.4 °F 90.9 °F 77.0 °F 84% 29.86 in 6.2 mi ESE 4.6 mph - N/A   Partly Cloudy